Voltar ao catálogo

STARLINK-37408

AtivoComunicaçõesVLEO
NORAD 69518·PAYLOAD·🇺🇸 United States

Lançado Jun 12, 2026 de Cape Canaveral Space Force Station

Loading…

Próximas Passagens (próximas 24 horas)

TLE

AtualizadoSource: CelesTrak SupGP

Época: Sep 15, 2026, 04:14 UTC

1 69518C 26133L   26258.17687500 -.00048323  00000+0 -14278-2 0  2584
2 69518  53.1562 254.6333 0001315  89.2657   7.7987 15.34413449    13

Acompanhe STARLINK-37408 em tempo real com AllMySat

Download on the App Store